Location: Menands
(42.6920°N, 73.7246°W)
Time: 02:29:53
(UTC+00:00)

Gbstr 26 Del rocket - Pass Details

Date: 18 February 2026
Orbit: 490 x 1216 km, 51.8° (Epoch: 12 March)

Event Time Altitude Azimuth Distance (km) Brightness Sun altitude
Rises 23:18:11 0° 241° (WSW) 3,491 8.3 -9.4°
Reaches altitude 10° 23:20:32 10° 242° (WSW) 2,654 7.5 -9.8°
Maximum altitude 23:27:01 78° 329° (NNW) 1,096 4.3 -11.0°
Enters shadow 23:34:32 10° 56° (NE) 3,062 6.1 -12.4°
